Location: ????????
(37.6846°N, 24.0673°E)
Time: 14:58:01
(UTC+00:00)

Cosmos 1975 - Pass Details

Date: 14 July 2020
Orbit: 542 x 562 km, 82.5° (Epoch: 03 August)

Event Time Altitude Azimuth Distance (km) Brightness Sun altitude
Exits shadow 02:09:48 15° 210° (SSW) 1,530 4.5 -11.3°
Maximum altitude 02:12:54 45° 280° (W) 744 3.2 -10.8°
Drops below altitude 10° 02:16:44 10° 354° (N) 1,814 5.9 -10.2°
Sets 02:18:58 0° 1° (N) 2,710 6.9 -9.9°
